Regional Weather Roundup
Issued by NWS

Home | Current Version | Previous Version | Text Only | Print | Product List | Glossary Off
Versions: 1 2 3 4 5 6 7 8 9 10 11 12 13 14 15 16 17 18 19 20 21 22 23 24 25 26 27 28 29 30 31 32 33 34 35 36 37 38 39 40 41 42 43 44 45 46 47 48 49 50

000
ASUS43 KLOT 171103
RWRIL

ILLINOIS REGIONAL WEATHER ROUNDUP
NATIONAL WEATHER SERVICE CHICAGO/ROMEOVILLE IL
500 AM CST TUE JAN 17 2017

NOTE: "FAIR" INDICATES FEW OR NO CLOUDS BELOW 12,000 FEET WITH NO
SIGNIFICANT WEATHER AND/OR OBSTRUCTIONS TO VISIBILITY.

* THESE STATIONS ARE NOT UNDER NWS QUALITY CONTROL. THEY ALSO MAY NOT
  REPORT WEATHER SUCH AS PRECIPITATION OR FOG.

ILZ001-002-007-009-015-016-024-171200-
NORTHWEST ILLINOIS

CITY           SKY/WX    TMP DP  RH WIND       PRES   REMARKS
MOLINE         FOG       36  34  92 W9        29.84R VSB 3/4 WCI  29
STERLING*      CLOUDY    35  34  96 W7        29.83S FOG     WCI  29
SAVANNA*       CLOUDY    34  34  99 NW5       29.83R FOG     WCI  30
$$

ILZ003-004-008-010-011-017-018-171200-
NORTH CENTRAL ILLINOIS

CITY           SKY/WX    TMP DP  RH WIND       PRES   REMARKS
ROCKFORD       DRIZZLE   36  34  92 NW6       29.80R WCI  31
FREEPORT*      FOG       33  33  99 W6        29.82S VSB 1/2 WCI  28
ROCHELLE*      CLOUDY    34  34 100 NW6       29.79R WCI  29
DE KALB*       CLOUDY    35  35  99 W9        29.78R FOG     WCI  28
$$

ILZ005-006-012>014-019>023-171200-
NORTHEAST ILLINOIS

CITY           SKY/WX    TMP DP  RH WIND       PRES   REMARKS
CHICAGO-OHARE  DRZL/FOG  38  37  97 NW9       29.73R VSB 3/4 WCI  31
CHICAGO-MIDWAY DRZL/FOG  39  39 100 SW7       29.74R VSB 1/4 WCI  34
AURORA         NOT AVBL
LANSING*       CLOUDY    45  45 100 W14       29.74S FOG
JOLIET*        FOG       39  39 100 SW9       29.78R VSB 1/4 WCI  32
WAUKEGAN       FOG       37  37 100 NW8       29.74R VSB 1/4 WCI  31
DUPAGE AIRPORT CLOUDY    37  35  92 W7        29.75R FOG     WCI  32
KANKAKEE*      CLOUDY    43  43  98 W12G18    29.80R
WHEELING       CLOUDY    38  38 100 NW7       29.74R FOG     WCI  33
MORRIS*        FOG       37  37  99 W9        29.77S VSB 1   WCI  30
ROMEOVILLE*    FOG       38  38 100 W14       29.76R VSB 1/2 WCI  30
NORTHERLY ISL    N/A     41  40  96 W7          N/A
$$

LMZ740>746-171200-
SOUTHERN LAKE MICHIGAN

STATION/POSITION SKY/WX   TEMP    WIND        PRES    VSBY  WAVE
                          AIR SEA DIR/SP/G                  HT/PER
                          (F)     (DEG/KT/KT) (MB)    (MI)  (FT/S)
HARRISON CRIB              42     310/  3/  4   N/A
BURNHAM HARBOR             41     250/  7/ 10   N/A
CALUMET HARBOR             45     220/  9/ 13 1006.3R
BURNS HARBOR               48     230/ 12/ 16 1007.5S
$$

ILZ025>027-034>036-040-047-049-050-058-095>099-171200-
WEST-CENTRAL ILLINOIS

CITY           SKY/WX    TMP DP  RH WIND       PRES   REMARKS
QUINCY         CLOUDY    41  40  96 W9        29.90R
GALESBURG*     FOG       37  37 100 W10       29.86R VSB 3/4 WCI  29
MACOMB*        CLOUDY    39  39 100 W16       29.90R WCI  30
JACKSONVILLE*  CLOUDY    42  40  91 SW10      29.90R
PITTSFIELD*    CLOUDY    42  40  95 SW12      29.92R
$$

ILZ028>032-037-038-041>044-048-051>054-059>061-171200-
CENTRAL ILLINOIS

CITY           SKY/WX    TMP DP  RH WIND       PRES   REMARKS
DECATUR        CLOUDY    46  43  89 W14       29.87S
PEORIA         CLOUDY    42  42 100 W9        29.86R FOG
LACON*         CLOUDY    40  40 100 SW6       29.83R FOG
LINCOLN*       CLOUDY    45  45  99 W9        29.87R
SPRINGFIELD    CLOUDY    45  41  86 W20G26    29.89R
TAYLORVILLE    CLOUDY    44  41  89 W14G20    29.90R
$$

ILZ033-039-045-046-055>057-062-063-171200-
EAST-CENTRAL ILLINOIS

CITY           SKY/WX    TMP DP  RH WIND       PRES   REMARKS
CHAMPAIGN      CLOUDY    48  44  86 W18       29.86R
RANTOUL*       CLOUDY    48  47  95 W16       29.84R
MATTOON        CLOUDY    48  45  89 W16       29.87R
PARIS*         CLOUDY    50  49  97 W13       29.87R
$$

ILZ079-100>102-171200-
SOUTHWEST ILLINOIS

CITY           SKY/WX    TMP DP  RH WIND       PRES   REMARKS
ALTON          CLOUDY    42  38  86 W14       29.94R
BELLEVILLE     CLOUDY    46  43  91 W16G23    29.93R
CAHOKIA*       CLOUDY    45  36  70 W12       29.95R
SPARTA*        CLOUDY    46  42  85 W10       29.96R
$$

ILZ064>066-069>071-074>076-080>082-084>086-088>090-092>094-171200-
SOUTH-CENTRAL ILLINOIS

CITY           SKY/WX    TMP DP  RH WIND       PRES   REMARKS
CARBONDALE     NOT AVBL
CAIRO*         CLEAR     54  50  86 W8        29.96R
EFFINGHAM*     CLOUDY    49  48  95 SW13      29.91R
MARION         MOCLDY    54  52  94 W3        29.94R
MT. VERNON     MOCLDY    49  44  83 W9        29.93R
CENTRALIA*     CLOUDY    48  45  87 W14       29.92R
SALEM*         CLOUDY    50  45  82 W12       29.91S
METROPOLIS*    MOCLDY    59  56  89 SW9       29.95R
$$

ILZ067-068-072-073-078-083-087-091-171200-
SOUTHEAST ILLINOIS

CITY           SKY/WX    TMP DP  RH WIND       PRES   REMARKS
LAWRENCEVILLE  CLOUDY    53  49  86 W15       29.89R
FLORA*         CLOUDY    51  47  86 W12       29.91S
FAIRFIELD*     CLOUDY    51  46  84 W3        29.91R
HARRISBURG*    CLOUDY    55  51  88 NW14      29.93R
ROBINSON*      CLOUDY    52  50  93 W12       29.89R
CARMI*         MOCLDY    53  50  91 W16       29.91R
$$

ABBREVIATIONS USED IN REMARKS
   TC - TEMPERATURE IN CELSIUS
  WCI - WIND CHILL INDEX
   HX - HEAT INDEX
  VSB - VISIBILITY
$$





USA.gov is the U.S. government's official web portal to all federal, state and local government web resources and services.